EW7554 Weather Reports


Display with metric or nautical units.
time (UTC)temp
F
wind
direction
speed
MPH
gust
MPH
rain 1hr
in
rain 24hr
in
rain mn
in
humidity
%
barometer
mb
20260902201533 87 75 2.0 7.0 0.00 0.04 0.04 55 1010.7
20260902200027 87 186 2.0 6.0 0.00 0.04 0.04 54 1011.0
20260902194532 86 152 2.0 5.0 0.00 0.04 0.04 54 1011.2
20260902193023 87 150 1.0 5.0 0.00 0.04 0.04 53 1011.3
20260902191520 86 149 1.0 4.0 0.00 0.04 0.04 55 1011.5
20260902190019 84 162 4.0 10.0 0.00 0.04 0.04 55 1011.4
20260902184514 84 195 3.0 5.0 0.00 0.04 0.04 56 1011.3
20260902183012 84 9 2.0 6.0 0.00 0.04 0.04 56 1011.4
20260902181510 84 34 2.0 5.0 0.00 0.04 0.04 57 1011.5
20260902180008 84 75 2.0 5.0 0.00 0.04 0.04 57 1011.8
20260902174505 82 58 1.0 5.0 0.00 0.04 0.04 60 1011.9
20260902173002 82 34 1.0 4.0 0.00 0.04 0.04 62 1012.3
20260902171600 80 138 2.0 4.0 0.00 0.04 0.04 63 1012.6
20260902170101 77 170 3.0 6.0 0.00 0.04 0.04 66 1013.0
20260902164556 78 161 2.0 6.0 0.00 0.04 0.04 65 1012.6
20260902163056 79 176 2.0 5.0 0.00 0.04 0.04 64 1012.5
20260902161556 79 53 1.0 4.0 0.00 0.04 0.04 64 1012.5
20260902160054 77 34 1.0 5.0 0.00 0.04 0.04 66 1012.4
20260902154550 77 108 1.0 6.0 0.00 0.04 0.04 67 1012.2
20260902153045 76 69 2.0 5.0 0.00 0.04 0.04 68 1012.1
20260902151546 75 66 3.0 6.0 0.00 0.04 0.04 71 1012.1
20260902150037 74 178 4.0 7.0 0.00 0.04 0.04 71 1012.1
20260902144537 73 13 2.0 6.0 0.00 0.04 0.04 72 1012.1
20260902143033 72 156 2.0 4.0 0.00 0.04 0.04 74 1012.4
20260902141526 72 124 2.0 5.0 0.00 0.04 0.04 75 1012.5
20260902140022 70 207 1.0 6.0 0.00 0.04 0.04 77 1012.6
20260902134518 69 74 1.0 8.0 0.00 0.04 0.04 80 1012.4
20260902133017 69 48 3.0 5.0 0.00 0.04 0.04 79 1012.4
20260902131515 69 26 3.0 6.0 0.00 0.04 0.04 79 1012.5
20260902130013 68 72 1.0 5.0 0.00 0.04 0.04 82 1012.2
20260902124511 67 24 0.0 4.0 0.00 0.04 0.04 85 1012.4
20260902123009 66 30 1.0 4.0 0.00 0.04 0.04 86 1012.4
20260902121506 66 32 2.0 4.0 0.00 0.04 0.04 87 1012.1
20260902120005 66 61 1.0 4.0 0.00 0.04 0.04 87 1012.4
20260902114502 65 130 0.0 2.0 0.00 0.04 0.04 87 1012.4
20260902113001 66 130 0.0 3.0 0.00 0.04 0.04 86 1012.3
20260902111500 66 136 2.0 8.0 0.00 0.04 0.04 86 1012.9
20260902110107 66 140 0.0 3.0 0.00 0.04 0.04 85 1013.0
20260902104558 66 155 1.0 2.0 0.00 0.04 0.04 84 1012.9
20260902103057 66 157 1.0 3.0 0.00 0.04 0.04 84 1013.1
20260902101557 66 157 0.0 5.0 0.00 0.04 0.04 84 1013.2
20260902100109 66 86 1.0 3.0 0.00 0.04 0.04 83 1013.0
20260902094612 66 85 1.0 3.0 0.00 0.04 0.04 82 1012.4
20260902093055 66 162 3.0 7.0 0.00 0.04 0.04 82 1012.0
20260902091600 66 163 6.0 10.0 0.00 0.04 0.04 83 1012.0
20260902090052 67 170 6.0 10.0 0.00 0.04 0.04 81 1011.5
20260902084551 67 65 5.0 11.0 0.00 0.04 0.04 79 1010.5
20260902083054 67 360 5.0 12.0 0.00 0.04 0.04 79 1010.7
20260902081546 67 65 3.0 8.0 0.01 0.04 0.04 82 1011.3
20260902080057 66 123 2.0 6.0 0.03 0.04 0.04 83 1012.0
20260902074543 66 105 1.0 7.0 0.04 0.04 0.04 80 1012.3
20260902073042 67 159 3.0 8.0 0.04 0.04 0.04 80 1011.7
20260902071538 68 86 3.0 8.0 0.03 0.03 0.03 80 1011.8
20260902070034 69 144 4.0 13.0 0.01 0.01 0.01 81 1012.9
20260902064532 71 195 8.0 15.0 0.00 0.00 0.00 79 1014.2
20260902063036 71 152 14.0 21.0 0.00 0.00 0.00 80 1014.8
20260902061542 73 28 1.0 3.0 0.00 0.00 0.00 70 1013.9
20260902060024 73 28 1.0 3.0 0.00 0.00 0.00 70 1012.9
20260902054523 72 28 2.0 4.0 0.00 0.00 0.00 73 1012.0
20260902053023 73 44 1.0 2.0 0.00 0.00 0.00 73 1012.3
20260902051517 73 111 1.0 2.0 0.00 0.00 0.00 71 1012.8
20260902050014 74 60 0.0 1.0 0.00 0.00 0.00 70 1013.5
20260902044513 74 60 1.0 2.0 0.00 0.00 0.00 67 1012.5
20260902043012 74 103 1.0 3.0 0.00 0.00 0.00 67 1012.4
20260902041512 75 129 0.0 3.0 0.00 0.00 0.00 66 1012.1
20260902040013 75 227 0.0 1.0 0.00 0.00 0.00 68 1012.3
20260902034512 76 227 0.0 2.0 0.00 0.00 0.00 68 1012.1
20260902033022 76 229 1.0 3.0 0.00 0.00 0.00 67 1012.7
20260902031509 76 294 0.0 1.0 0.00 0.00 0.00 67 1012.9
20260902030009 76 294 0.0 1.0 0.00 0.00 0.00 66 1012.9
20260902024509 76 294 0.0 1.0 0.00 0.00 0.00 66 1012.7
20260902023008 77 294 0.0 1.0 0.00 0.00 0.00 66 1012.7
20260902021521 77 294 0.0 0.0 0.00 0.00 0.00 67 1012.6
20260902020008 78 294 0.0 0.0 0.00 0.00 0.00 68 1012.7
20260902014507 78 294 0.0 1.0 0.00 0.00 0.00 67 1012.6
20260902013006 78 294 0.0 1.0 0.00 0.00 0.00 66 1012.5
20260902011505 79 294 0.0 1.0 0.00 0.00 0.00 67 1012.4
20260902010010 79 294 0.0 1.0 0.00 0.00 0.00 66 1012.2
20260902004515 80 294 0.0 1.0 0.00 0.00 0.00 65 1012.2
20260902003004 81 294 0.0 3.0 0.00 0.00 0.00 64 1012.2
20260902001503 81 294 0.0 4.0 0.00 0.00 0.00 62 1012.3
20260902000006 82 257 1.0 3.0 0.00 0.00 0.00 62 1012.5
20260901234502 82 255 1.0 2.0 0.00 0.00 0.00 61 1012.6
20260901233001 82 254 1.0 3.0 0.00 0.00 0.00 60 1012.6
20260901231501 83 254 0.0 1.0 0.00 0.00 0.00 58 1012.6
20260901230100 83 254 1.0 3.0 0.00 0.00 0.00 57 1012.6
20260901224601 83 286 0.0 3.0 0.00 0.00 0.00 56 1012.6
20260901223100 84 288 1.0 5.0 0.00 0.00 0.00 55 1012.6
20260901221559 85 217 1.0 4.0 0.00 0.00 0.00 52 1012.6
20260901214558 83 212 2.0 5.0 0.00 0.00 0.00 55 1012.5
20260901213058 83 159 3.0 7.0 0.00 0.00 0.00 55 1012.5
20260901211558 84 232 3.0 6.0 0.00 0.00 0.00 56 1012.5
20260901210056 83 173 2.0 5.0 0.00 0.00 0.00 56 1012.3
20260901204556 84 178 2.0 4.0 0.00 0.00 0.00 52 1012.4
20260901203055 86 175 3.0 7.0 0.00 0.00 0.00 48 1012.7